Home > Time Zones > World Clock > Weather > Norway > Gran > Past weeks

Flag for Norway Weather past 2 weeks in Gran, Norway

Now
61 °F

Partly sunny.


Feels Like: 61 °F
Forecast: 49 / 60 °F
Wind: 12 mph from Northeast

Location: Oslo Gardermoen Airport

Current Time: Jul 29, 2015 at 2:24:23 PM

Latest Report: Jul 29, 2015 at 1:50 PM


Visibility: N/A

Pressure: 29.45 "Hg

Humidity: 77%

Dew point: 54 °F

Location of GranLocation

Historic Weather in Gran — Graph

°F

Gran temperature yesterday

Maximum temperature yesterday: 61 °F (at 3:20 PM)
Minimum temperature yesterday: 54 °F (at 12:50 AM)
Average temperature yesterday: 56 °F

Past Weeks' High & Low Weather Summary

 TemperatureHumidityPressure
High70 °F (Jul 14, 2:50 PM)100% (Jul 18, 6:50 AM)30.07 "Hg (Jul 18, 6:50 AM)
Low43 °F (Jul 25, 4:20 AM)35% (Jul 17, 5:20 PM)29.36 "Hg (Jul 26, 4:20 PM)
Average57 °F74%29.67 "Hg
* Reported Jul 14 12:20 PM — Jul 29 12:50 PM, Gran, Weather by CustomWeather, © 2015

Note: Actual official high and low records may vary slightly from our data, if they occured in-between our weather recording intervals... More about our weather records

Advertising

Gran weather history for previous 24 hours

 ConditionsComfort  
Time TempWeatherWind HumidityBarometerVisibility
12:50 PM
Wed, Jul 29
59 °FPartly sunny.13 mph88%29.45 "HgN/A
12:20 PM57 °FPartly sunny.12 mph88%29.45 "HgN/A
11:50 AM57 °FPartly sunny.13 mph88%29.47 "HgN/A
11:20 AM55 °FLight rain. Partly sunny.12 mph94%29.47 "HgN/A
10:50 AM55 °FScattered showers. Partly sunny.10 mph94%29.47 "HgN/A
10:20 AM54 °FLight rain. Broken clouds.13 mph94%29.47 "HgN/A
9:50 AM55 °FRain showers. Broken clouds.13 mph94%29.47 "Hg4 mi
9:20 AM55 °FSprinkles. Broken clouds.13 mph94%29.47 "Hg6 mi
8:50 AM54 °FSprinkles. Broken clouds.10 mph94%29.47 "HgN/A
8:20 AM54 °FLight rain. Partly sunny.9 mph94%29.47 "HgN/A
7:50 AM54 °FLight rain. Partly sunny.10 mph94%29.47 "HgN/A
7:20 AM54 °FSprinkles. Partly sunny.10 mph94%29.47 "HgN/A
6:50 AM54 °FRain showers. Partly sunny.10 mph94%29.47 "HgN/A
6:20 AM54 °FPartly sunny.9 mph94%29.47 "HgN/A
5:50 AM54 °FOvercast.10 mph94%29.47 "HgN/A
4:50 AM54 °FLight rain. Passing clouds.9 mph94%29.47 "HgN/A
4:20 AM54 °FPassing clouds.12 mph94%29.47 "HgN/A
3:50 AM54 °FPassing clouds.10 mph94%29.50 "HgN/A
2:50 AM54 °FPartly cloudy.8 mph94%29.50 "HgN/A
2:20 AM54 °FPassing clouds.9 mph94%29.50 "HgN/A
1:50 AM54 °FScattered showers. Passing clouds.9 mph94%29.50 "HgN/A
1:20 AM54 °FSprinkles. Passing clouds.10 mph94%29.50 "HgN/A
12:50 AM54 °FRain showers. Passing clouds.9 mph94%29.50 "Hg6 mi
11:20 PM
Tue, Jul 28
54 °FRain. Partly cloudy.7 mph94%29.53 "Hg5 mi
10:50 PM55 °FSprinkles. Overcast.7 mph88%29.53 "Hg6 mi
10:20 PM55 °FSleet. Overcast.6 mph82%29.53 "HgN/A
9:50 PM57 °FScattered showers. Partly sunny.6 mph77%29.53 "HgN/A
9:20 PM57 °FPartly sunny.7 mph77%29.53 "HgN/A
8:50 PM57 °FBroken clouds.6 mph72%29.53 "HgN/A
8:20 PM57 °FBroken clouds.6 mph72%29.53 "HgN/A
7:50 PM59 °FPartly sunny.6 mph68%29.53 "HgN/A
7:20 PM59 °FPartly sunny.5 mph68%29.53 "HgN/A
6:50 PM59 °FBroken clouds.7 mph68%29.53 "HgN/A
6:20 PM59 °FPartly sunny.8 mph68%29.53 "HgN/A
5:50 PM59 °FPartly sunny.8 mph68%29.53 "HgN/A
5:20 PM59 °FPartly sunny.7 mph68%29.53 "HgN/A
4:50 PM59 °FBroken clouds.9 mph68%29.53 "HgN/A
4:20 PM61 °FBroken clouds.7 mph63%29.53 "HgN/A
3:50 PM61 °FPartly sunny.8 mph63%29.53 "HgN/A
3:20 PM61 °FBroken clouds.6 mph63%29.53 "HgN/A
2:50 PM59 °FLight rain. Partly sunny.6 mph68%29.53 "HgN/A
2:20 PM59 °FLight rain. Broken clouds.7 mph68%29.53 "HgN/A
Weather by CustomWeather, © 2015

See weather overviewHow to use our weather pages